Lima, OH

1:05 AM EDT on July 30, 2016 (GMT -0400)
Lima Allen County

Weather History for KAOH - May, 2014

Change the Weather History Date:

Saturday, May 3, 2014

  Actual Average (KFDY) Record (KFDY)
Temperature  
Mean Temperature 57 °F -  
Max Temperature 66 °F 62 °F 88 °F (1959)
Min Temperature 48 °F 43 °F 33 °F (1986)
Degree Days  
Heating Degree Days 8    
Growing Degree Days 7 (Base 50)    
Moisture  
Dew Point 40 °F    
Average Humidity 57    
Maximum Humidity 77    
Minimum Humidity 35    
Precipitation  
Precipitation 0.01 in - - ()
Sea Level Pressure  
Sea Level Pressure 29.79 in    
Wind  
Wind Speed 14 mph (WSW)    
Max Wind Speed 30 mph    
Max Gust Speed 36 mph    
Visibility 10 miles    
Events      
Averages and records for this station are not official NWS values.
T = Trace of Precipitation, MM = Missing Value Source: NWS Daily Summary

Daily Weather History Graph

Daily Weather History Graph

Search for Another Location

Airport or City:

Trip Planner

Search our weather history database for the weather conditions in past years. The results will help you decide how hot, cold, wet, or windy it might be!

Date:

Astronomy

May. 03, 2014 Rise Set
Actual Time 6:32 AM EDT 8:34 PM EDT
Civil Twilight 6:02 AM EDT 9:04 PM EDT
Nautical Twilight 5:25 AM EDT 9:41 PM EDT
Astronomical Twilight 4:46 AM EDT 10:20 PM EDT
Moon 10:00 AM EDT (5/3) No Moon Set
Length of Visible Light 15h 01m
Length of Day
14h 02m
Waxing Crescent, 19% of the Moon is Illuminated
May 3
Waxing Crescent
May 6
First Quarter
May 14
Full
May 21
Last Quarter
May 28
New

Hourly Weather History & Observations

Time (EDT) Temp. Dew Point Humidity Pressure Visibility Wind Dir Wind Speed Gust Speed Precip Events Conditions
12:53 AM 50.0 °F 41.0 °F 71% 29.84 in 10.0 mi SW 10.4 mph - N/A   Overcast
1:53 AM 50.0 °F 41.0 °F 71% 29.83 in 10.0 mi SW 10.4 mph - N/A   Overcast
2:53 AM 50.0 °F 42.1 °F 74% 29.81 in 10.0 mi SW 9.2 mph - N/A   Overcast
3:53 AM 48.9 °F 41.0 °F 74% 29.80 in 10.0 mi SW 9.2 mph - N/A   Overcast
4:53 AM 48.0 °F 41.0 °F 77% 29.79 in 10.0 mi South 6.9 mph - N/A   Mostly Cloudy
5:53 AM 48.0 °F 41.0 °F 77% 29.78 in 10.0 mi South 11.5 mph - N/A   Overcast
6:53 AM 48.9 °F 41.0 °F 74% 29.77 in 10.0 mi SSW 11.5 mph - 0.00 in   Overcast
7:53 AM 48.9 °F 42.1 °F 77% 29.76 in 10.0 mi South 15.0 mph - 0.01 in   Overcast
8:53 AM 52.0 °F 41.0 °F 66% 29.75 in 10.0 mi SSW 12.7 mph 27.6 mph 0.00 in   Mostly Cloudy
9:53 AM 55.9 °F 43.0 °F 62% 29.74 in 10.0 mi WSW 21.9 mph 28.8 mph N/A   Mostly Cloudy
10:53 AM 59.0 °F 43.0 °F 55% 29.73 in 10.0 mi WSW 18.4 mph 29.9 mph N/A   Scattered Clouds
11:53 AM 62.1 °F 43.0 °F 50% 29.73 in 10.0 mi WSW 24.2 mph 31.1 mph N/A   Mostly Cloudy
12:53 PM 62.1 °F 43.0 °F 50% 29.75 in 10.0 mi West 29.9 mph 35.7 mph N/A   Mostly Cloudy
1:53 PM 63.0 °F 43.0 °F 48% 29.75 in 10.0 mi West 23.0 mph 32.2 mph N/A   Scattered Clouds
2:53 PM 63.0 °F 41.0 °F 45% 29.78 in 10.0 mi West 24.2 mph 33.4 mph N/A   Scattered Clouds
3:53 PM 64.9 °F 39.9 °F 40% 29.78 in 10.0 mi WNW 21.9 mph 31.1 mph N/A   Scattered Clouds
4:53 PM 66.0 °F 37.9 °F 36% 29.79 in 10.0 mi West 21.9 mph 35.7 mph N/A   Mostly Cloudy
5:53 PM 63.0 °F 36.0 °F 37% 29.80 in 10.0 mi West 20.7 mph 28.8 mph N/A   Overcast
6:53 PM 64.0 °F 36.0 °F 35% 29.81 in 10.0 mi West 16.1 mph 24.2 mph N/A   Overcast
7:53 PM 61.0 °F 36.0 °F 39% 29.83 in 10.0 mi WNW 11.5 mph - N/A   Overcast
8:53 PM 59.0 °F 37.9 °F 46% 29.85 in 10.0 mi West 9.2 mph - N/A   Overcast
9:53 PM 55.0 °F 37.0 °F 51% 29.86 in 10.0 mi WSW 6.9 mph - N/A   Scattered Clouds
10:53 PM 55.0 °F 37.0 °F 51% 29.87 in 10.0 mi WSW 6.9 mph - N/A   Partly Cloudy
11:53 PM 55.9 °F 37.9 °F 51% 29.86 in 10.0 mi SW 8.1 mph - N/A   Overcast